#timestamp,LO_Frequency,Hit 
1498575615.6,286047436.0,N
1498575635.4,286047430.3,N
1498575655.3,286047429.7,N
1498575675.1,286047425.1,N
1498575695.8,286047418.6,N
1498575715.7,286047412.9,N
1498575735.5,286047408.1,N
1498575755.3,286047407.6,N
1498575775.2,286047403.8,N
1498575795.9,286047401.5,N
1498575815.7,286047400.5,N
1498575835.6,286047397.9,N
1498575855.4,286047393.6,N
1498575875.2,286047401.0,N
1498575895.0,286047396.6,N
1498575896.0,286047396.6,N
1498575915.8,286047393.8,N
1498575935.6,286047391.6,N
1498575955.4,286047388.3,N
1498575975.3,286047390.2,N
1498575995.1,286047400.8,N
1498576015.8,286047420.3,N
1498576035.7,286047423.5,N
1498576055.5,286047417.8,N
1498576075.3,286047420.2,N
1498576095.2,286047426.8,N
1498576115.9,286047427.7,N
1498576135.7,286047423.7,N
1498576155.6,286047422.5,N
1498576175.4,286047422.2,N
1498576195.2,286047435.2,N
1498576215.0,286047447.9,N
1498576216.0,286047447.9,N
1498576235.8,286047446.1,N
1498576255.6,286047446.2,N
1498576275.4,286047441.5,N
1498576295.3,286047432.1,N
1498576315.1,286047426.8,N
1498576335.8,286047418.4,N
1498576355.7,286047412.2,N
1498576375.5,286047403.7,N
1498576395.3,286047398.4,N
1498576415.2,286047396.1,N
1498576435.9,286047392.6,N
1498576455.7,286047389.7,N
1498576475.6,286047385.5,N
1498576495.4,286047386.2,N
1498576515.2,286047393.4,N
1498576535.0,286047395.8,N
1498576536.0,286047395.8,N
1498576555.8,286047398.7,N
1498576575.6,286047411.7,N
1498576595.4,286047415.1,N
1498576615.3,286047416.4,N
1498576635.1,286047417.2,N
1498576655.8,286047409.9,N
1498576675.7,286047413.4,N
1498576695.5,286047408.0,N
1498576715.3,286047401.5,N
1498576735.2,286047400.5,N
1498576755.9,286047393.6,N
1498576775.7,286047399.7,N
1498576795.6,286047396.1,N
1498576815.4,286047390.0,N
1498576835.2,286047383.1,N
1498576855.0,286047379.3,N
1498576856.0,286047379.3,N
1498576875.8,286047378.6,N
1498576895.6,286047386.8,N
1498576915.4,286047388.7,N
1498576935.3,286047394.5,N
1498576955.1,286047399.8,N
1498576975.8,286047408.0,N
1498576995.7,286047410.3,N
1498577015.5,286047415.9,N
1498577035.3,286047429.3,N
1498577055.2,286047435.1,N
1498577075.9,286047444.9,N
1498577095.7,286047445.6,N
1498577115.6,286047440.1,N
1498577135.4,286047434.1,N
1498577155.2,286047427.0,N
1498577175.1,286047425.1,N
1498577176.0,286047425.1,N
1498577195.8,286047416.1,N
1498577215.6,286047416.4,N
1498577235.4,286047416.3,N
1498577255.3,286047421.3,N
1498577275.1,286047431.1,N
1498577295.8,286047427.1,N
1498577315.7,286047429.0,N
1498577335.5,286047437.1,N
1498577355.3,286047446.6,N
1498577375.2,286047451.0,N
1498577395.9,286047446.7,N
1498577415.7,286047445.8,N
1498577435.6,286047441.2,N
1498577455.4,286047431.0,N
1498577475.2,286047429.8,N
1498577495.0,286047429.1,N
1498577496.0,286047429.1,N
1498577515.8,286047427.4,N
1498577535.6,286047424.7,N
1498577555.4,286047417.3,N
1498577575.3,286047412.8,N
1498577595.1,286047406.5,N
1498577615.8,286047400.3,N
1498577635.7,286047395.4,N
1498577655.5,286047394.9,N
1498577675.3,286047397.9,N
1498577695.2,286047408.0,N
1498577715.9,286047410.7,N
1498577735.7,286047409.3,N
1498577755.6,286047417.5,N
1498577775.4,286047409.7,N
1498577795.2,286047398.4,N
1498577815.0,286047393.2,N
1498577816.0,286047393.2,N
1498577835.8,286047387.7,N
1498577855.6,286047397.7,N
1498577875.4,286047399.5,N
1498577895.3,286047399.3,N
1498577915.1,286047404.0,N
1498577935.8,286047405.1,N
1498577955.7,286047402.8,N
1498577975.5,286047400.2,N
1498577995.3,286047398.1,N
1498578015.2,286047419.9,N
1498578035.9,286047416.3,N
1498578055.7,286047408.5,N
1498578075.6,286047403.4,N
1498578095.4,286047410.4,N
1498578115.2,286047405.8,N
1498578135.0,286047416.5,N
1498578136.0,286047416.5,N
1498578155.8,286047407.2,N
1498578175.6,286047407.2,N
1498578195.4,286047405.0,N
1498578215.3,286047413.8,N
1498578235.1,286047410.5,N
1498578255.8,286047418.0,N
1498578275.7,286047415.8,N
1498578295.5,286047429.3,N
1498578315.3,286047438.9,N
1498578335.2,286047427.3,N
1498578355.9,286047445.2,N
1498578375.7,286047437.3,N
1498578395.6,286047433.0,N
1498578415.4,286047422.2,N
1498578435.2,286047417.8,N
1498578455.0,286047413.8,N
1498578456.0,286047413.8,N
1498578475.8,286047409.9,N
1498578495.6,286047404.8,N
1498578515.4,286047402.3,N
1498578535.3,286047403.1,N
1498578555.1,286047418.9,N
1498578575.8,286047419.4,N
1498578595.7,286047409.9,N
1498578615.5,286047404.7,N
1498578635.3,286047400.6,N
1498578655.2,286047395.9,N
1498578675.9,286047392.4,N
1498578695.7,286047401.5,N
1498578715.6,286047415.6,N
1498578735.4,286047406.2,N
1498578755.2,286047419.9,N
1498578775.0,286047427.3,N
1498578775.9,286047427.3,N
1498578795.8,286047423.0,N
1498578815.6,286047433.8,N
1498578835.4,286047442.0,N
1498578855.3,286047458.8,N
1498578875.1,286047448.6,N
1498578895.8,286047444.3,N
1498578915.7,286047447.7,N
1498578935.5,286047455.4,N
1498578955.3,286047445.9,N
1498578975.2,286047444.9,N
1498578995.9,286047446.8,N
1498579015.7,286047469.1,N
1498579035.6,286047477.0,N
1498579055.4,286047467.1,N
1498579075.2,286047475.0,N
1498579095.0,286047479.2,N
1498579095.9,286047479.2,N
1498579115.8,286047462.3,N
1498579135.6,286047478.1,N
1498579155.4,286047485.6,N
1498579175.3,286047476.2,N
1498579195.1,286047472.6,N
